| time (UTC) | temp F | wind direction | speed MPH | gust MPH | rain 1hr in | rain 24hr in | rain mn in | humidity % | barometer mb |
| 20260505223502 | 61 | 165 | 1.0 | 4.0 | 0.00 | 0.38 | 0.38 | 89 | 1007.5 |
| 20260505223003 | 61 | 157 | 2.0 | 4.0 | 0.00 | 0.38 | 0.38 | 89 | 1007.5 |
| 20260505222504 | 61 | 150 | 1.0 | 4.0 | 0.00 | 0.38 | 0.38 | 89 | 1007.7 |
| 20260505222002 | 61 | 141 | 2.0 | 4.0 | 0.00 | 0.38 | 0.38 | 89 | 1007.7 |
| 20260505221524 | 61 | 150 | 2.0 | 4.0 | 0.00 | 0.38 | 0.38 | 89 | 1007.7 |
| 20260505221003 | 61 | 162 | 1.0 | 4.0 | 0.00 | 0.38 | 0.38 | 89 | 1007.8 |
| 20260505220502 | 61 | 151 | 2.0 | 9.0 | 0.01 | 0.38 | 0.38 | 89 | 1007.8 |
| 20260505220003 | 61 | 163 | 2.0 | 9.0 | 0.01 | 0.38 | 0.38 | 89 | 1008.0 |
| 20260505215503 | 61 | 179 | 2.0 | 8.0 | 0.01 | 0.38 | 0.38 | 89 | 1008.0 |
| 20260505215002 | 61 | 171 | 2.0 | 8.0 | 0.02 | 0.38 | 0.38 | 89 | 1008.1 |
| 20260505214503 | 61 | 152 | 1.0 | 7.0 | 0.02 | 0.38 | 0.38 | 89 | 1008.1 |
| 20260505214002 | 61 | 146 | 1.0 | 5.0 | 0.02 | 0.38 | 0.38 | 89 | 1008.1 |
| 20260505213502 | 61 | 167 | 1.0 | 5.0 | 0.02 | 0.38 | 0.38 | 89 | 1008.2 |
| 20260505213003 | 61 | 171 | 1.0 | 5.0 | 0.02 | 0.38 | 0.38 | 89 | 1008.1 |
| 20260505212523 | 61 | 159 | 2.0 | 5.0 | 0.03 | 0.38 | 0.38 | 89 | 1008.0 |
| 20260505212024 | 61 | 177 | 2.0 | 5.0 | 0.04 | 0.38 | 0.38 | 89 | 1008.1 |
| 20260505211523 | 61 | 214 | 2.0 | 7.0 | 0.04 | 0.38 | 0.38 | 89 | 1008.2 |
| 20260505211002 | 61 | 201 | 1.0 | 7.0 | 0.05 | 0.38 | 0.38 | 89 | 1008.2 |
| 20260505210503 | 61 | 203 | 1.0 | 6.0 | 0.04 | 0.37 | 0.37 | 89 | 1008.2 |
| 20260505210002 | 61 | 178 | 2.0 | 9.0 | 0.05 | 0.37 | 0.37 | 89 | 1008.2 |
| 20260505205502 | 61 | 151 | 2.0 | 9.0 | 0.04 | 0.36 | 0.36 | 89 | 1008.1 |
| 20260505205003 | 61 | 158 | 2.0 | 5.0 | 0.04 | 0.36 | 0.36 | 89 | 1008.2 |
| 20260505204502 | 61 | 159 | 2.0 | 4.0 | 0.05 | 0.36 | 0.36 | 88 | 1008.2 |
| 20260505204003 | 61 | 159 | 2.0 | 9.0 | 0.06 | 0.36 | 0.36 | 88 | 1008.2 |
| 20260505203503 | 62 | 198 | 2.0 | 9.0 | 0.06 | 0.36 | 0.36 | 88 | 1008.1 |
| 20260505203002 | 62 | 206 | 2.0 | 7.0 | 0.07 | 0.35 | 0.35 | 88 | 1008.2 |
| 20260505202502 | 62 | 164 | 2.0 | 5.0 | 0.08 | 0.35 | 0.35 | 89 | 1008.3 |
| 20260505202003 | 62 | 148 | 1.0 | 5.0 | 0.08 | 0.34 | 0.34 | 89 | 1008.2 |
| 20260505201503 | 62 | 151 | 1.0 | 3.0 | 0.09 | 0.34 | 0.34 | 88 | 1008.4 |
| 20260505201003 | 62 | 133 | 0.0 | 3.0 | 0.11 | 0.33 | 0.33 | 88 | 1008.4 |
| 20260505200503 | 62 | 280 | 0.0 | 2.0 | 0.14 | 0.33 | 0.33 | 88 | 1008.5 |
| 20260505200002 | 62 | 223 | 0.0 | 2.0 | 0.14 | 0.32 | 0.32 | 88 | 1008.5 |
| 20260505195502 | 62 | 186 | 0.0 | 2.0 | 0.14 | 0.32 | 0.32 | 88 | 1008.5 |
| 20260505195003 | 62 | 221 | 0.0 | 2.0 | 0.14 | 0.32 | 0.32 | 88 | 1008.6 |
| 20260505194503 | 62 | 257 | 0.0 | 2.0 | 0.13 | 0.31 | 0.31 | 88 | 1008.6 |
| 20260505194003 | 62 | 280 | 0.0 | 2.0 | 0.12 | 0.30 | 0.30 | 87 | 1008.7 |
| 20260505193503 | 62 | 254 | 1.0 | 7.0 | 0.12 | 0.30 | 0.30 | 87 | 1008.8 |
| 20260505193003 | 62 | 225 | 2.0 | 7.0 | 0.10 | 0.28 | 0.29 | 86 | 1008.9 |
| 20260505192503 | 62 | 192 | 2.0 | 7.0 | 0.09 | 0.27 | 0.27 | 85 | 1009.1 |
| 20260505192002 | 63 | 220 | 2.0 | 6.0 | 0.08 | 0.26 | 0.26 | 84 | 1009.1 |
| 20260505191503 | 64 | 248 | 2.0 | 6.0 | 0.06 | 0.24 | 0.24 | 82 | 1009.0 |
| 20260505191003 | 65 | 242 | 2.0 | 6.0 | 0.04 | 0.22 | 0.22 | 79 | 1008.9 |
| 20260505190523 | 66 | 230 | 2.0 | 5.0 | 0.01 | 0.19 | 0.19 | 77 | 1008.7 |
| 20260505190023 | 67 | 214 | 1.0 | 6.0 | 0.00 | 0.18 | 0.18 | 75 | 1008.5 |
| 20260505185524 | 67 | 198 | 1.0 | 6.0 | 0.00 | 0.18 | 0.18 | 72 | 1008.4 |
| 20260505185002 | 67 | 203 | 2.0 | 6.0 | 0.00 | 0.18 | 0.18 | 72 | 1008.4 |
| 20260505184503 | 67 | 202 | 2.0 | 8.0 | 0.00 | 0.18 | 0.18 | 71 | 1008.5 |
| 20260505184002 | 67 | 186 | 2.0 | 9.0 | 0.00 | 0.18 | 0.18 | 71 | 1008.6 |
| 20260505183502 | 67 | 152 | 2.0 | 9.0 | 0.00 | 0.18 | 0.18 | 71 | 1008.6 |
| 20260505183003 | 67 | 150 | 2.0 | 7.0 | 0.00 | 0.18 | 0.18 | 70 | 1008.6 |
| 20260505182503 | 67 | 180 | 2.0 | 7.0 | 0.00 | 0.18 | 0.18 | 71 | 1008.6 |
| 20260505181503 | 67 | 167 | 3.0 | 9.0 | 0.00 | 0.18 | 0.18 | 71 | 1008.8 |
| 20260505181002 | 67 | 178 | 2.0 | 11.0 | 0.00 | 0.18 | 0.18 | 70 | 1008.8 |
| 20260505180502 | 67 | 178 | 2.0 | 11.0 | 0.00 | 0.18 | 0.18 | 70 | 1008.9 |
| 20260505180003 | 67 | 161 | 3.0 | 7.0 | 0.00 | 0.18 | 0.18 | 71 | 1009.0 |
| 20260505175508 | 67 | 159 | 2.0 | 7.0 | 0.00 | 0.18 | 0.18 | 69 | 1009.0 |
| 20260505175002 | 67 | 164 | 2.0 | 6.0 | 0.00 | 0.18 | 0.18 | 70 | 1009.0 |
| 20260505174502 | 67 | 161 | 2.0 | 6.0 | 0.00 | 0.18 | 0.18 | 70 | 1008.9 |
| 20260505174003 | 67 | 188 | 2.0 | 9.0 | 0.00 | 0.18 | 0.18 | 70 | 1009.0 |
| 20260505173502 | 67 | 200 | 3.0 | 9.0 | 0.00 | 0.18 | 0.18 | 70 | 1009.0 |
| 20260505173003 | 66 | 194 | 3.0 | 11.0 | 0.00 | 0.18 | 0.18 | 71 | 1009.1 |
| 20260505172507 | 66 | 182 | 3.0 | 11.0 | 0.00 | 0.18 | 0.18 | 70 | 1009.2 |
| 20260505172003 | 66 | 155 | 3.0 | 10.0 | 0.00 | 0.18 | 0.18 | 71 | 1009.3 |
| 20260505171503 | 66 | 152 | 2.0 | 10.0 | 0.00 | 0.18 | 0.18 | 71 | 1009.2 |
| 20260505171024 | 66 | 162 | 1.0 | 7.0 | 0.00 | 0.18 | 0.18 | 71 | 1009.3 |
| 20260505170504 | 66 | 172 | 2.0 | 9.0 | 0.00 | 0.18 | 0.18 | 71 | 1009.3 |
| 20260505170002 | 66 | 190 | 2.0 | 9.0 | 0.00 | 0.18 | 0.18 | 72 | 1009.3 |
| 20260505165503 | 66 | 198 | 3.0 | 8.0 | 0.00 | 0.18 | 0.18 | 71 | 1009.3 |
| 20260505165002 | 66 | 184 | 3.0 | 11.0 | 0.00 | 0.18 | 0.18 | 69 | 1009.3 |
| 20260505164503 | 66 | 182 | 2.0 | 11.0 | 0.00 | 0.18 | 0.18 | 69 | 1009.3 |
| 20260505164003 | 66 | 196 | 2.0 | 5.0 | 0.00 | 0.18 | 0.18 | 70 | 1009.3 |
| 20260505163523 | 66 | 192 | 2.0 | 7.0 | 0.00 | 0.18 | 0.18 | 71 | 1009.3 |
| 20260505163003 | 66 | 179 | 2.0 | 7.0 | 0.00 | 0.18 | 0.18 | 71 | 1009.3 |
| 20260505162503 | 66 | 167 | 2.0 | 7.0 | 0.00 | 0.18 | 0.18 | 70 | 1009.4 |
| 20260505162003 | 66 | 167 | 2.0 | 6.0 | 0.00 | 0.18 | 0.18 | 71 | 1009.4 |
| 20260505161523 | 66 | 198 | 1.0 | 6.0 | 0.00 | 0.18 | 0.18 | 71 | 1009.3 |
| 20260505161003 | 66 | 168 | 2.0 | 7.0 | 0.00 | 0.18 | 0.18 | 71 | 1009.3 |
| 20260505160502 | 66 | 163 | 2.0 | 7.0 | 0.00 | 0.18 | 0.18 | 71 | 1009.2 |
| 20260505153023 | 65 | 159 | 2.0 | 5.0 | 0.00 | 0.18 | 0.18 | 71 | 1009.2 |
| 20260505152503 | 66 | 156 | 2.0 | 9.0 | 0.00 | 0.18 | 0.18 | 71 | 1009.1 |
| 20260505152002 | 66 | 151 | 2.0 | 9.0 | 0.00 | 0.18 | 0.18 | 72 | 1008.9 |
| 20260505151503 | 66 | 157 | 3.0 | 11.0 | 0.00 | 0.18 | 0.18 | 71 | 1009.0 |
| 20260505151003 | 66 | 161 | 3.0 | 11.0 | 0.00 | 0.18 | 0.18 | 71 | 1009.0 |
| 20260505150503 | 66 | 155 | 2.0 | 9.0 | 0.00 | 0.18 | 0.18 | 72 | 1009.0 |
| 20260505140503 | 62 | 155 | 2.0 | 7.0 | 0.00 | 0.18 | 0.18 | 83 | 1008.6 |
| 20260505125003 | 58 | 148 | 2.0 | 5.0 | 0.00 | 0.18 | 0.18 | 88 | 1008.3 |
| 20260505124503 | 58 | 143 | 3.0 | 7.0 | 0.00 | 0.18 | 0.18 | 88 | 1008.4 |
| 20260505124024 | 58 | 139 | 2.0 | 7.0 | 0.01 | 0.18 | 0.18 | 89 | 1008.6 |
| 20260505123503 | 58 | 153 | 1.0 | 5.0 | 0.01 | 0.18 | 0.18 | 89 | 1008.6 |
| 20260505123003 | 58 | 151 | 1.0 | 4.0 | 0.01 | 0.18 | 0.18 | 89 | 1008.8 |
| 20260505122503 | 58 | 137 | 1.0 | 3.0 | 0.01 | 0.18 | 0.18 | 89 | 1009.0 |
| 20260505122003 | 58 | 146 | 1.0 | 3.0 | 0.01 | 0.18 | 0.18 | 89 | 1009.2 |
| 20260505121524 | 58 | 191 | 1.0 | 4.0 | 0.01 | 0.18 | 0.18 | 89 | 1009.1 |
| 20260505121003 | 57 | 204 | 1.0 | 4.0 | 0.01 | 0.18 | 0.18 | 89 | 1009.2 |
| 20260505120502 | 57 | 190 | 1.0 | 2.0 | 0.01 | 0.18 | 0.18 | 89 | 1009.2 |
| 20260505120004 | 57 | 220 | 1.0 | 2.0 | 0.02 | 0.18 | 0.18 | 89 | 1009.3 |
| 20260505115503 | 57 | 222 | 0.0 | 2.0 | 0.02 | 0.18 | 0.18 | 89 | 1009.3 |
| 20260505115003 | 57 | 219 | 1.0 | 3.0 | 0.02 | 0.18 | 0.18 | 89 | 1009.2 |
| 20260505114503 | 57 | 172 | 1.0 | 4.0 | 0.02 | 0.18 | 0.18 | 89 | 1009.2 |
| 20260505114024 | 57 | 145 | 1.0 | 4.0 | 0.01 | 0.17 | 0.17 | 89 | 1009.1 |
| 20260505113524 | 57 | 125 | 1.0 | 3.0 | 0.01 | 0.17 | 0.17 | 89 | 1009.1 |
| 20260505113024 | 57 | 124 | 1.0 | 2.0 | 0.01 | 0.17 | 0.17 | 89 | 1008.9 |
| 20260505112503 | 57 | 127 | 1.0 | 2.0 | 0.01 | 0.17 | 0.17 | 89 | 1008.7 |
| 20260505112003 | 57 | 131 | 0.0 | 2.0 | 0.01 | 0.17 | 0.17 | 89 | 1008.6 |
| 20260505111524 | 57 | 133 | 0.0 | 3.0 | 0.01 | 0.17 | 0.17 | 89 | 1008.4 |
| 20260505111003 | 57 | 155 | 1.0 | 3.0 | 0.03 | 0.17 | 0.17 | 89 | 1008.1 |
| 20260505110503 | 57 | 189 | 1.0 | 3.0 | 0.06 | 0.17 | 0.17 | 89 | 1007.8 |
| 20260505102004 | 58 | 250 | 0.0 | 2.0 | 0.15 | 0.16 | 0.16 | 88 | 1009.2 |
| 20260505101503 | 58 | 259 | 0.0 | 2.0 | 0.14 | 0.15 | 0.16 | 88 | 1009.3 |
| 20260505101003 | 58 | 279 | 0.0 | 2.0 | 0.14 | 0.14 | 0.14 | 88 | 1009.4 |
| 20260505100503 | 58 | 266 | 1.0 | 4.0 | 0.10 | 0.10 | 0.10 | 87 | 1009.5 |
| 20260505100003 | 58 | 259 | 2.0 | 5.0 | 0.08 | 0.08 | 0.08 | 87 | 1009.6 |
| 20260505095503 | 58 | 274 | 2.0 | 5.0 | 0.06 | 0.06 | 0.06 | 86 | 1009.6 |
| 20260505095003 | 59 | 293 | 1.0 | 4.0 | 0.05 | 0.05 | 0.05 | 85 | 1009.6 |
| 20260505094503 | 59 | 287 | 1.0 | 4.0 | 0.04 | 0.04 | 0.04 | 84 | 1009.8 |
| 20260505094003 | 60 | 303 | 2.0 | 4.0 | 0.04 | 0.04 | 0.04 | 83 | 1009.6 |
| 20260505093503 | 60 | 328 | 2.0 | 9.0 | 0.03 | 0.03 | 0.03 | 82 | 1009.4 |
| 20260505093004 | 60 | 293 | 2.0 | 9.0 | 0.02 | 0.02 | 0.02 | 80 | 1009.3 |
| 20260505092503 | 61 | 269 | 1.0 | 4.0 | 0.02 | 0.02 | 0.02 | 78 | 1009.2 |
| 20260505092004 | 62 | 290 | 1.0 | 4.0 | 0.01 | 0.01 | 0.01 | 76 | 1008.7 |
| 20260505091524 | 63 | 289 | 2.0 | 6.0 | 0.01 | 0.01 | 0.01 | 74 | 1008.5 |
| 20260505091003 | 64 | 262 | 1.0 | 6.0 | 0.00 | 0.00 | 0.00 | 69 | 1008.5 |
| 20260505090524 | 64 | 257 | 1.0 | 3.0 | 0.00 | 0.00 | 0.00 | 65 | 1008.4 |
| 20260505090003 | 64 | 260 | 0.0 | 3.0 | 0.00 | 0.00 | 0.00 | 64 | 1008.0 |
| 20260505085502 | 64 | 251 | 0.0 | 1.0 | 0.00 | 0.00 | 0.00 | 64 | 1007.9 |
| 20260505085003 | 64 | 251 | 0.0 | 2.0 | 0.00 | 0.00 | 0.00 | 64 | 1007.8 |
| 20260505084524 | 64 | 244 | 1.0 | 5.0 | 0.00 | 0.00 | 0.00 | 64 | 1007.7 |
| 20260505084003 | 64 | 239 | 1.0 | 5.0 | 0.00 | 0.00 | 0.00 | 63 | 1007.7 |
| 20260505083503 | 64 | 249 | 0.0 | 4.0 | 0.00 | 0.00 | 0.00 | 63 | 1007.6 |
| 20260505083003 | 64 | 262 | 0.0 | 2.0 | 0.00 | 0.00 | 0.00 | 63 | 1007.5 |
| 20260505082503 | 64 | 218 | 1.0 | 2.0 | 0.00 | 0.00 | 0.00 | 63 | 1007.4 |
| 20260505082004 | 64 | 196 | 1.0 | 2.0 | 0.00 | 0.00 | 0.00 | 62 | 1007.3 |
| 20260505081503 | 65 | 190 | 0.0 | 2.0 | 0.00 | 0.00 | 0.00 | 63 | 1007.2 |
| 20260505081003 | 65 | 180 | 0.0 | 3.0 | 0.00 | 0.00 | 0.00 | 62 | 1007.1 |
| 20260505080503 | 65 | 191 | 1.0 | 4.0 | 0.00 | 0.00 | 0.00 | 62 | 1007.0 |
| 20260505080003 | 65 | 232 | 1.0 | 4.0 | 0.00 | 0.00 | 0.00 | 61 | 1007.1 |
| 20260505075503 | 65 | 237 | 0.0 | 4.0 | 0.00 | 0.00 | 0.00 | 61 | 1007.2 |
| 20260505075004 | 65 | 229 | 0.0 | 3.0 | 0.00 | 0.00 | 0.00 | 61 | 1007.2 |
| 20260505074504 | 66 | 234 | 1.0 | 4.0 | 0.00 | 0.00 | 0.00 | 60 | 1007.4 |
| 20260505074003 | 66 | 235 | 1.0 | 5.0 | 0.00 | 0.00 | 0.00 | 60 | 1007.3 |
| 20260505073503 | 66 | 242 | 1.0 | 5.0 | 0.00 | 0.00 | 0.00 | 60 | 1007.2 |
| 20260505073003 | 66 | 234 | 1.0 | 5.0 | 0.00 | 0.00 | 0.00 | 59 | 1007.1 |
| 20260505072524 | 66 | 204 | 1.0 | 5.0 | 0.00 | 0.00 | 0.00 | 59 | 1007.0 |
| 20260505072003 | 66 | 209 | 2.0 | 8.0 | 0.00 | 0.00 | 0.00 | 59 | 1006.8 |
| 20260505071524 | 66 | 228 | 2.0 | 8.0 | 0.00 | 0.00 | 0.00 | 58 | 1006.7 |
| 20260505071003 | 66 | 211 | 2.0 | 10.0 | 0.00 | 0.00 | 0.00 | 59 | 1006.7 |
| 20260505070503 | 67 | 217 | 3.0 | 11.0 | 0.00 | 0.00 | 0.00 | 59 | 1006.7 |
| 20260505070003 | 67 | 235 | 2.0 | 11.0 | 0.00 | 0.00 | 0.00 | 59 | 1006.7 |
| 20260505065503 | 67 | 177 | 2.0 | 10.0 | 0.00 | 0.00 | 0.00 | 58 | 1006.8 |
| 20260505065003 | 67 | 157 | 3.0 | 11.0 | 0.00 | 0.00 | 0.00 | 58 | 1006.6 |
| 20260505064504 | 67 | 169 | 3.0 | 11.0 | 0.00 | 0.00 | 0.00 | 58 | 1006.7 |
| 20260505064003 | 67 | 174 | 3.0 | 13.0 | 0.00 | 0.00 | 0.00 | 57 | 1006.7 |
| 20260505063504 | 67 | 169 | 3.0 | 13.0 | 0.00 | 0.00 | 0.00 | 57 | 1006.8 |
| 20260505063004 | 67 | 164 | 3.0 | 11.0 | 0.00 | 0.00 | 0.00 | 57 | 1006.7 |
| 20260505062503 | 67 | 163 | 3.0 | 10.0 | 0.00 | 0.00 | 0.00 | 57 | 1006.7 |
| 20260505062003 | 67 | 155 | 3.0 | 10.0 | 0.00 | 0.00 | 0.00 | 57 | 1006.7 |
| 20260505061524 | 67 | 156 | 3.0 | 9.0 | 0.00 | 0.00 | 0.00 | 57 | 1006.7 |
| 20260505061004 | 67 | 161 | 3.0 | 9.0 | 0.00 | 0.00 | 0.00 | 57 | 1006.8 |
| 20260505060503 | 67 | 157 | 3.0 | 8.0 | 0.00 | 0.00 | 0.00 | 57 | 1006.6 |
| 20260505060026 | 67 | 159 | 3.0 | 9.0 | 0.00 | 0.00 | 0.00 | 57 | 1006.6 |
| 20260505055503 | 67 | 184 | 3.0 | 10.0 | 0.00 | 0.00 | 0.00 | 57 | 1006.5 |
| 20260505055024 | 68 | 173 | 3.0 | 11.0 | 0.00 | 0.00 | 0.00 | 57 | 1006.3 |
| 20260505054504 | 68 | 153 | 3.0 | 11.0 | 0.00 | 0.00 | 0.00 | 57 | 1006.3 |
| 20260505054024 | 68 | 159 | 2.0 | 9.0 | 0.00 | 0.00 | 0.00 | 57 | 1006.1 |
| 20260505053503 | 68 | 156 | 3.0 | 12.0 | 0.00 | 0.00 | 0.00 | 56 | 1006.1 |
| 20260505053003 | 68 | 157 | 4.0 | 12.0 | 0.00 | 0.00 | 0.00 | 55 | 1006.0 |
| 20260505052503 | 68 | 161 | 3.0 | 10.0 | 0.00 | 0.00 | 0.00 | 55 | 1006.0 |
| 20260505052003 | 68 | 166 | 3.0 | 9.0 | 0.00 | 0.00 | 0.00 | 55 | 1006.0 |
| 20260505051503 | 69 | 174 | 3.0 | 11.0 | 0.00 | 0.00 | 0.00 | 55 | 1006.0 |
| 20260505051003 | 69 | 181 | 3.0 | 12.0 | 0.00 | 0.00 | 0.00 | 55 | 1006.0 |
| 20260505050524 | 69 | 174 | 2.0 | 12.0 | 0.00 | 0.00 | 0.00 | 55 | 1006.1 |
| 20260505041503 | 69 | 174 | 3.0 | 13.0 | 0.00 | 0.00 | 0.00 | 55 | 1006.7 |
| 20260505041025 | 69 | 161 | 3.0 | 13.0 | 0.00 | 0.00 | 0.00 | 56 | 1006.6 |
| 20260505040503 | 69 | 166 | 3.0 | 9.0 | 0.00 | 0.00 | 0.00 | 56 | 1006.8 |
| 20260505040004 | 69 | 161 | 3.0 | 10.0 | 0.00 | 0.00 | 0.00 | 56 | 1006.8 |
| 20260505035503 | 69 | 155 | 2.0 | 10.0 | 0.00 | 0.00 | 0.00 | 56 | 1006.9 |
| 20260505035004 | 69 | 183 | 2.0 | 10.0 | 0.00 | 0.00 | 0.00 | 56 | 1006.9 |
| 20260505034504 | 69 | 189 | 3.0 | 10.0 | 0.00 | 0.00 | 0.00 | 56 | 1006.9 |
| 20260505034003 | 69 | 172 | 3.0 | 8.0 | 0.00 | 0.00 | 0.00 | 57 | 1006.9 |
| 20260505033504 | 69 | 180 | 3.0 | 11.0 | 0.00 | 0.00 | 0.00 | 57 | 1006.8 |
| 20260505033004 | 69 | 169 | 3.0 | 11.0 | 0.00 | 0.00 | 0.00 | 57 | 1006.9 |
| 20260505032505 | 69 | 146 | 2.0 | 6.0 | 0.00 | 0.00 | 0.00 | 57 | 1006.8 |
| 20260505032004 | 69 | 155 | 2.0 | 5.0 | 0.00 | 0.00 | 0.00 | 57 | 1006.8 |
| 20260505031504 | 69 | 157 | 2.0 | 7.0 | 0.00 | 0.00 | 0.00 | 57 | 1006.8 |
| 20260505031003 | 69 | 162 | 2.0 | 7.0 | 0.00 | 0.00 | 0.00 | 57 | 1006.8 |
| 20260505030501 | 69 | 157 | 2.0 | 5.0 | 0.00 | 0.00 | 0.00 | 57 | 1006.8 |
| 20260505030001 | 69 | 156 | 2.0 | 6.0 | 0.00 | 0.00 | 0.00 | 58 | 1006.7 |
| 20260505025501 | 69 | 154 | 2.0 | 9.0 | 0.00 | 0.00 | 0.00 | 57 | 1006.7 |
| 20260505025001 | 69 | 155 | 2.0 | 9.0 | 0.00 | 0.00 | 0.00 | 57 | 1006.6 |
| 20260505024501 | 69 | 164 | 2.0 | 7.0 | 0.00 | 0.00 | 0.00 | 57 | 1006.5 |
| 20260505024023 | 69 | 160 | 2.0 | 7.0 | 0.00 | 0.00 | 0.00 | 57 | 1006.5 |
| 20260505023522 | 70 | 139 | 2.0 | 8.0 | 0.00 | 0.00 | 0.00 | 57 | 1006.4 |
| 20260505023001 | 70 | 138 | 2.0 | 8.0 | 0.00 | 0.00 | 0.00 | 57 | 1006.4 |
| 20260505022502 | 69 | 143 | 2.0 | 5.0 | 0.00 | 0.00 | 0.00 | 57 | 1006.4 |
| 20260505022001 | 69 | 144 | 2.0 | 7.0 | 0.00 | 0.00 | 0.00 | 57 | 1006.3 |
| 20260505021501 | 69 | 146 | 2.0 | 7.0 | 0.00 | 0.00 | 0.00 | 58 | 1006.3 |
| 20260505021023 | 69 | 142 | 2.0 | 6.0 | 0.00 | 0.00 | 0.00 | 58 | 1006.1 |
| 20260505020523 | 69 | 145 | 1.0 | 4.0 | 0.00 | 0.00 | 0.00 | 58 | 1006.0 |
| 20260505020001 | 69 | 150 | 1.0 | 6.0 | 0.00 | 0.00 | 0.00 | 58 | 1006.0 |
| 20260505015502 | 69 | 144 | 1.0 | 6.0 | 0.00 | 0.00 | 0.00 | 59 | 1005.9 |
| 20260505015001 | 69 | 139 | 1.0 | 3.0 | 0.00 | 0.00 | 0.00 | 59 | 1005.9 |
| 20260505014522 | 69 | 136 | 1.0 | 3.0 | 0.00 | 0.00 | 0.00 | 58 | 1005.8 |
| 20260505014022 | 70 | 136 | 1.0 | 4.0 | 0.00 | 0.00 | 0.00 | 57 | 1005.8 |
| 20260505013501 | 70 | 149 | 1.0 | 4.0 | 0.00 | 0.00 | 0.00 | 57 | 1005.7 |
| 20260505013002 | 70 | 148 | 1.0 | 3.0 | 0.00 | 0.00 | 0.00 | 57 | 1005.7 |
| 20260505012522 | 70 | 134 | 1.0 | 3.0 | 0.00 | 0.00 | 0.00 | 57 | 1005.7 |
| 20260505012001 | 70 | 137 | 1.0 | 3.0 | 0.00 | 0.00 | 0.00 | 57 | 1005.7 |
| 20260505011501 | 70 | 137 | 1.0 | 4.0 | 0.00 | 0.00 | 0.00 | 56 | 1005.6 |
| 20260505011001 | 70 | 137 | 1.0 | 5.0 | 0.00 | 0.00 | 0.00 | 56 | 1005.6 |
| 20260505010523 | 71 | 140 | 1.0 | 5.0 | 0.00 | 0.00 | 0.00 | 56 | 1005.6 |
| 20260505005957 | 71 | 137 | 1.0 | 5.0 | 0.00 | 0.00 | 0.00 | 56 | 1005.6 |
| 20260505005455 | 71 | 146 | 2.0 | 5.0 | 0.00 | 0.00 | 0.00 | 55 | 1005.6 |
| 20260505005016 | 71 | 146 | 1.0 | 5.0 | 0.00 | 0.00 | 0.00 | 55 | 1005.6 |
| 20260505004455 | 71 | 148 | 1.0 | 4.0 | 0.00 | 0.00 | 0.00 | 55 | 1005.6 |
| 20260505003955 | 71 | 149 | 1.0 | 4.0 | 0.00 | 0.00 | 0.00 | 54 | 1005.7 |
| 20260505003455 | 72 | 134 | 1.0 | 3.0 | 0.00 | 0.00 | 0.00 | 53 | 1005.6 |
| 20260505002956 | 72 | 139 | 2.0 | 5.0 | 0.00 | 0.00 | 0.00 | 54 | 1005.6 |
| 20260505002456 | 72 | 147 | 2.0 | 7.0 | 0.00 | 0.00 | 0.00 | 52 | 1005.7 |
| 20260505001956 | 72 | 146 | 2.0 | 7.0 | 0.00 | 0.00 | 0.00 | 52 | 1005.7 |
| 20260505001455 | 72 | 152 | 2.0 | 5.0 | 0.00 | 0.00 | 0.00 | 51 | 1005.7 |
| 20260505000955 | 72 | 153 | 2.0 | 6.0 | 0.00 | 0.00 | 0.00 | 51 | 1005.7 |
| 20260505000455 | 73 | 155 | 2.0 | 6.0 | 0.00 | 0.00 | 0.00 | 51 | 1005.8 |
| 20260504235955 | 73 | 168 | 2.0 | 5.0 | 0.00 | 0.00 | 0.00 | 51 | 1005.8 |
| 20260504235455 | 73 | 181 | 2.0 | 4.0 | 0.00 | 0.00 | 0.00 | 51 | 1005.9 |
| 20260504234955 | 73 | 195 | 2.0 | 7.0 | 0.00 | 0.00 | 0.00 | 50 | 1005.9 |
| 20260504234455 | 73 | 187 | 2.0 | 9.0 | 0.00 | 0.00 | 0.00 | 51 | 1006.1 |
| 20260504233955 | 73 | 182 | 3.0 | 9.0 | 0.00 | 0.00 | 0.00 | 50 | 1006.2 |
| 20260504233455 | 74 | 169 | 3.0 | 7.0 | 0.00 | 0.00 | 0.00 | 49 | 1006.3 |
| 20260504232955 | 74 | 164 | 3.0 | 5.0 | 0.00 | 0.00 | 0.00 | 48 | 1006.3 |
| 20260504232455 | 74 | 186 | 2.0 | 8.0 | 0.00 | 0.00 | 0.00 | 48 | 1006.4 |
| 20260504231955 | 75 | 190 | 2.0 | 8.0 | 0.00 | 0.00 | 0.00 | 46 | 1006.5 |
| 20260504231455 | 75 | 201 | 2.0 | 10.0 | 0.00 | 0.00 | 0.00 | 45 | 1006.4 |
| 20260504230956 | 75 | 205 | 4.0 | 12.0 | 0.00 | 0.00 | 0.00 | 45 | 1006.5 |
| 20260504230455 | 75 | 198 | 5.0 | 12.0 | 0.00 | 0.00 | 0.00 | 44 | 1006.5 |
| 20260504225955 | 76 | 183 | 5.0 | 12.0 | 0.00 | 0.00 | 0.00 | 43 | 1006.5 |
| 20260504225456 | 76 | 193 | 4.0 | 14.0 | 0.00 | 0.00 | 0.00 | 44 | 1006.6 |
| 20260504225016 | 76 | 196 | 4.0 | 14.0 | 0.00 | 0.00 | 0.00 | 44 | 1006.7 |
| 20260504224455 | 76 | 184 | 3.0 | 11.0 | 0.00 | 0.00 | 0.00 | 45 | 1006.7 |
| 20260504223955 | 76 | 208 | 4.0 | 11.0 | 0.00 | 0.00 | 0.00 | 45 | 1006.6 |